Wind_Speed
8 7 7 6 5 5 4 5 6 5 5 6 7 7 7 8 7 7 6 6 6 6 6 5 5 6 6 6 6 6 6 6 6 7 7 6 6 6 6 7 8 7 7
8 8 7 6 5 5 5 5 5 5 6 6 6 7 7 8 8 8 8 7 7 7 7 6 6 6 6 6 7 7 7 7 7 7 7 7 7 7 7 7 8 8 7
8 8 7 7 6 6 5 5 5 5 6 6 5 6 7 7 8 8 8 8 7 7 7 7 7 7 7 7 7 8 7 8 8 8 8 8 9 9 8 8 9 9 8
9 8 7 7 7 7 5 5 5 5 5 5 5 5 6 6 7 8 8 8 8 8 8 7 7 7 7 8 8 8 8 8 9 9 9 9 9 10 10 9 9 10 9
10 9 8 7 7 7 6 6 6 5 5 5 6 6 6 7 7 7 8 8 8 8 8 8 8 8 8 8 9 9 8 9 9 9 9 9 9 10 10 10 10 10 10
10 9 9 8 8 7 7 6 6 6 5 5 6 6 7 7 7 8 8 8 8 8 9 8 8 8 8 8 9 9 9 9 9 9 10 10 9 9 10 10 11 11 10
10 10 10 9 9 8 7 7 7 7 6 6 6 7 7 7 7 8 8 9 9 9 9 9 9 9 9 8 9 9 9 9 9 10 10 10 10 10 10 11 11 12 11
11 11 10 10 9 9 8 8 7 7 7 7 7 7 7 7 7 8 9 10 10 10 10 10 10 10 10 10 10 10 10 10 10 10 10 11 11 11 11 11 12 13 13
12 12 11 11 11 10 9 9 8 8 8 8 8 8 8 8 8 8 9 10 11 11 11 11 11 11 11 11 11 10 10 11 11 12 11 11 11 11 11 12 12 12 12
13 13 13 12 12 12 11 10 10 10 9 9 9 9 9 9 9 9 10 10 11 12 12 12 12 12 12 12 12 12 11 12 12 12 12 12 12 12 12 12 12 12 12
14 14 14 13 13 13 12 12 11 11 11 10 10 11 11 11 11 11 11 12 12 12 12 12 12 13 12 12 12 13 13 13 13 13 13 12 12 12 12 12 12 13 12
15 14 14 14 14 13 13 13 13 12 12 11 11 12 12 12 12 12 13 13 13 13 13 13 13 13 13 14 13 13 13 13 14 14 14 14 13 14 14 14 14 14 14
15 14 14 14 14 14 14 14 14 14 13 13 13 13 13 13 14 14 14 14 14 14 14 14 13 13 14 14 14 14 13 14 14 15 15 15 15 15 15 15 15 15 15
15 15 15 15 14 13 14 15 15 14 14 14 14 14 15 15 15 15 15 15 14 14 14 14 14 14 14 15 15 15 15 15 16 16 15 16 16 17 17 17 16 16 16
17 16 16 16 15 15 15 15 16 15 15 15 15 15 15 15 15 15 16 16 15 15 15 15 15 15 15 16 16 16 16 16 17 17 17 16 16 17 18 17 18 17 17
18 17 17 17 17 17 17 17 17 16 16 17 17 17 16 17 17 17 16 16 16 16 16 16 17 17 16 16 17 17 17 17 17 18 18 17 17 17 17 18 18 18 19
19 18 17 17 17 18 19 18 18 18 18 18 18 18 17 17 18 18 18 17 17 17 17 17 18 18 17 17 17 17 18 17 18 18 18 18 18 19 19 20 20 20 20
19 19 18 18 18 18 19 19 19 19 19 19 18 18 18 19 19 19 19 19 19 18 18 18 18 19 18 18 18 18 18 18 18 18 19 19 20 21 21 21 21 20 21
20 20 19 19 19 19 19 20 20 20 19 19 19 19 19 19 19 19 20 20 20 20 20 19 19 19 19 19 19 19 18 18 18 18 19 19 21 21 21 22 22 22 22
20 20 20 20 20 20 20 20 20 20 20 20 20 20 20 20 19 19 20 20 21 21 21 21 21 21 20 20 20 20 20 19 19 19 19 20 20 20 20 21 22 22 23
19 20 20 20 20 20 21 21 21 21 21 21 20 20 20 20 20 20 21 21 21 21 21 21 21 22 21 21 21 21 21 20 20 20 20 20 21 21 21 21 21 21 22
20 20 20 20 20 20 21 21 21 21 21 20 20 20 21 21 21 22 22 22 22 22 22 22 21 22 21 21 21 21 21 21 21 21 21 21 22 22 22 21 21 22 23
21 20 19 19 20 20 20 20 20 20 20 20 20 20 20 22 22 22 23 23 23 23 23 22 23 23 23 23 23 22 22 22 22 22 22 21 22 21 22 22 22 22 23
22 20 20 20 20 20 20 21 20 21 21 21 21 20 21 21 22 23 23 24 23 23 23 23 23 23 23 24 24 23 23 24 24 23 23 22 22 22 23 22 21 22 22
21 21 20 20 20 20 21 21 21 21 21 21 21 21 22 22 22 23 24 24 23 23 24 24 24 25 25 25 25 25 25 25 25 25 24 24 23 24 24 23 23 23 24
21 20 19 20 20 20 20 21 21 21 21 21 22 22 22 23 22 23 23 24 24 24 24 25 25 26 26 26 26 26 26 26 26 26 26 26 26 25 25 25 25 25 25
Wind_Direction
323 319 319 310 295 280 268 262 255 257 254 247 240 239 237 234 237 237 235 235 236 238 240 233 230 230 234 233 229 227 226 228 229 227 228 232 231 233 238 236 234 233 234
318 315 314 312 295 283 271 259 256 252 253 249 241 239 235 236 241 241 241 239 236 242 242 236 232 232 235 237 229 228 231 236 234 234 235 237 232 232 242 239 238 233 234
316 315 308 307 299 291 275 256 256 258 249 246 247 246 242 244 243 242 242 242 246 245 243 240 234 234 233 236 233 230 230 235 237 239 237 238 235 235 240 243 241 235 236
314 311 306 303 298 288 275 267 266 261 263 260 254 251 249 247 246 243 241 242 246 247 243 241 240 237 237 240 237 235 235 239 244 245 243 244 240 238 243 247 244 238 239
313 308 303 296 294 289 283 278 275 268 268 266 258 257 255 251 248 242 243 248 248 245 242 242 242 246 250 246 241 239 239 246 248 250 251 252 252 245 244 247 244 240 239
313 306 301 294 292 289 283 279 275 273 271 267 268 266 264 256 249 247 250 251 250 245 243 243 243 252 258 255 246 244 248 252 251 251 250 251 256 252 247 248 244 243 244
305 303 299 293 288 283 276 275 272 270 270 271 272 270 268 259 254 252 252 252 250 247 246 246 246 250 254 254 252 254 255 255 254 251 249 251 252 253 253 252 248 247 250
298 296 293 288 283 276 275 273 268 268 271 271 269 268 267 262 263 257 254 249 246 247 247 248 250 253 253 254 252 254 255 252 252 250 249 250 251 253 254 254 254 251 251
290 288 287 284 279 274 272 271 267 267 272 269 266 264 262 263 262 261 255 248 246 247 250 251 252 254 254 253 251 255 259 256 255 253 251 252 252 251 252 253 254 255 254
287 283 283 282 276 270 266 267 268 265 265 265 266 263 259 261 262 261 259 252 248 250 253 254 253 253 255 254 251 252 258 257 256 251 250 252 253 252 253 255 254 256 260
289 280 278 278 274 269 265 266 270 267 263 265 268 265 261 262 265 264 261 255 253 253 255 258 257 254 254 255 255 254 256 256 254 251 250 249 250 252 254 255 257 257 260
287 284 278 274 272 267 265 266 267 264 265 265 266 266 264 264 264 264 260 256 255 255 255 258 258 256 257 257 258 256 257 257 256 255 255 251 250 251 253 255 257 259 260
283 280 278 277 276 270 264 267 268 263 265 266 267 268 266 265 267 265 261 257 255 257 257 258 258 257 259 260 260 258 258 257 257 257 259 256 253 253 254 254 257 258 260
281 278 279 276 277 273 266 265 267 265 266 268 268 268 269 265 265 264 261 259 257 255 257 257 258 256 258 260 261 259 260 258 259 259 259 260 256 258 256 256 257 258 259
276 276 273 273 273 271 268 263 265 267 269 269 269 268 267 263 263 263 262 260 259 258 257 257 257 256 258 259 261 261 262 261 260 259 260 261 259 260 259 259 258 258 258
273 272 269 270 270 268 267 267 266 267 270 270 268 268 267 264 262 262 261 259 258 258 258 258 258 257 259 259 260 261 261 262 261 261 259 259 258 259 261 261 259 257 258
269 268 266 269 269 269 268 270 268 266 269 270 270 268 267 265 263 263 263 260 259 258 258 259 260 260 260 261 261 261 261 261 261 261 260 259 258 259 260 261 260 258 259
266 265 266 266 267 268 267 269 270 268 267 267 268 269 269 266 264 263 263 261 259 258 259 260 260 261 262 262 263 263 261 261 262 261 261 259 259 260 260 260 260 259 260
264 264 265 264 266 267 268 269 269 269 268 267 266 267 268 267 264 262 263 262 259 258 258 259 259 260 262 263 263 265 266 266 264 262 262 261 261 261 260 261 261 260 260
263 264 264 265 266 266 266 269 269 266 267 268 268 268 267 266 265 263 262 260 259 258 258 258 258 259 261 264 264 264 264 266 266 267 266 263 262 261 262 263 263 262 261
263 264 264 266 268 268 267 269 267 265 265 268 268 268 266 265 265 263 262 259 258 258 259 259 260 258 260 263 264 264 262 262 265 267 267 264 261 260 263 264 264 262 260
264 265 265 266 267 269 269 268 266 264 265 266 266 267 264 264 265 264 262 261 259 259 258 258 260 259 260 261 263 264 262 261 262 265 266 265 265 263 262 262 261 260 259
263 264 264 265 267 268 269 268 265 265 265 264 264 265 265 266 266 265 262 261 260 259 258 258 258 259 261 262 262 264 264 262 261 263 265 266 267 266 265 263 261 261 261
261 262 263 265 268 269 270 268 267 267 266 265 266 266 265 267 266 265 264 262 262 260 259 259 259 260 262 263 263 264 265 265 262 263 264 265 266 266 266 265 262 262 263
258 259 261 265 268 269 269 267 266 267 266 267 267 268 267 268 268 267 265 264 263 261 260 259 261 261 262 264 265 265 265 265 264 264 264 263 264 265 264 262 262 263 263
256 257 260 263 266 268 269 268 268 267 267 269 270 270 270 270 271 269 266 263 262 262 261 259 260 261 262 265 266 266 266 265 264 264 264 263 263 264 262 263 263 262 262
Height
5868 5867 5866 5865 5864 5863 5863 5864 5864 5864 5864 5864 5865 5866 5866 5867 5867 5868 5868 5868 5869 5869 5869 5869 5870 5870 5870 5870 5871 5871 5871 5871 5872 5872 5872 5873 5873 5874 5874 5874 5875 5875 5875
5866 5865 5864 5863 5863 5862 5862 5862 5863 5863 5863 5863 5864 5864 5865 5865 5865 5866 5866 5867 5867 5868 5868 5868 5868 5868 5869 5869 5869 5869 5870 5870 5870 5871 5871 5871 5872 5872 5873 5873 5873 5873 5874
5865 5864 5863 5862 5861 5861 5860 5861 5861 5861 5861 5862 5862 5862 5863 5863 5864 5864 5865 5865 5865 5866 5866 5866 5867 5867 5867 5867 5867 5868 5868 5869 5869 5869 5869 5870 5870 5871 5871 5871 5871 5872 5872
5863 5862 5861 5861 5860 5859 5859 5859 5860 5860 5860 5860 5861 5861 5861 5861 5861 5862 5862 5863 5863 5864 5864 5864 5865 5865 5865 5865 5866 5866 5866 5867 5867 5867 5867 5867 5868 5868 5869 5869 5870 5870 5870
5861 5860 5859 5859 5859 5858 5858 5858 5858 5858 5858 5858 5859 5859 5859 5859 5860 5860 5860 5861 5861 5861 5862 5862 5863 5863 5863 5863 5864 5864 5864 5864 5865 5865 5865 5865 5866 5866 5866 5867 5867 5868 5868
5859 5858 5858 5857 5857 5856 5856 5856 5856 5856 5857 5857 5857 5857 5858 5858 5858 5858 5858 5858 5859 5859 5860 5860 5861 5861 5861 5861 5861 5861 5862 5862 5862 5862 5863 5863 5863 5863 5864 5865 5865 5866 5866
5856 5856 5855 5855 5854 5854 5854 5854 5854 5854 5855 5855 5855 5855 5855 5855 5856 5856 5856 5856 5857 5857 5858 5858 5858 5859 5859 5859 5859 5859 5859 5859 5859 5860 5860 5860 5861 5861 5862 5862 5862 5863 5863
5853 5853 5853 5852 5852 5852 5852 5852 5852 5852 5852 5853 5853 5853 5853 5854 5854 5854 5854 5854 5854 5855 5855 5856 5856 5856 5856 5856 5856 5856 5856 5856 5856 5857 5857 5858 5858 5858 5859 5859 5860 5860 5860
5851 5850 5849 5849 5849 5849 5849 5849 5849 5850 5850 5850 5851 5851 5851 5851 5851 5852 5852 5852 5852 5852 5852 5853 5853 5853 5853 5853 5853 5853 5854 5853 5854 5854 5854 5855 5855 5856 5856 5856 5857 5857 5857
5847 5847 5846 5846 5846 5846 5846 5846 5846 5847 5847 5847 5848 5848 5848 5849 5849 5849 5849 5849 5849 5849 5849 5850 5850 5850 5850 5850 5850 5850 5850 5850 5851 5851 5851 5851 5852 5852 5853 5853 5853 5854 5854
5843 5843 5842 5842 5842 5842 5843 5843 5843 5843 5844 5844 5844 5844 5845 5845 5846 5846 5846 5846 5846 5846 5846 5846 5846 5846 5847 5847 5847 5847 5847 5847 5847 5847 5847 5848 5848 5849 5849 5850 5850 5851 5851
5839 5839 5838 5838 5838 5838 5839 5839 5840 5840 5840 5840 5841 5841 5841 5841 5842 5842 5842 5842 5843 5843 5843 5843 5843 5843 5844 5844 5844 5844 5844 5844 5844 5844 5844 5844 5845 5845 5846 5846 5847 5847 5847
5835 5834 5834 5834 5834 5834 5835 5835 5836 5836 5836 5836 5837 5837 5837 5837 5838 5838 5838 5838 5839 5839 5839 5839 5839 5840 5840 5840 5840 5840 5840 5840 5840 5840 5840 5840 5841 5841 5842 5842 5843 5843 5843
5830 5830 5830 5830 5830 5830 5830 5831 5831 5832 5832 5832 5833 5833 5833 5833 5833 5833 5834 5834 5835 5835 5835 5835 5835 5836 5836 5836 5836 5836 5836 5836 5837 5836 5837 5837 5837 5837 5837 5838 5838 5839 5839
5825 5825 5826 5825 5825 5826 5826 5826 5827 5827 5827 5828 5828 5828 5828 5828 5828 5829 5829 5830 5831 5831 5831 5831 5831 5831 5832 5832 5832 5832 5832 5832 5832 5832 5832 5832 5832 5832 5832 5833 5834 5834 5835
5820 5820 5821 5821 5821 5821 5822 5822 5822 5822 5822 5823 5823 5823 5823 5823 5823 5824 5824 5824 5825 5826 5826 5826 5826 5826 5827 5827 5827 5827 5827 5827 5827 5827 5827 5827 5828 5828 5828 5828 5829 5829 5830
5815 5815 5815 5816 5816 5816 5817 5817 5817 5817 5817 5817 5817 5818 5818 5818 5818 5818 5818 5819 5819 5820 5821 5821 5821 5821 5822 5822 5822 5822 5822 5822 5822 5822 5822 5822 5823 5823 5823 5823 5823 5824 5824
5809 5809 5810 5810 5811 5811 5811 5811 5812 5812 5812 5812 5812 5812 5812 5812 5812 5812 5813 5813 5814 5814 5815 5815 5816 5816 5816 5817 5817 5817 5817 5817 5817 5817 5817 5817 5817 5817 5818 5818 5818 5818 5819
5803 5804 5804 5804 5805 5805 5805 5806 5806 5806 5806 5806 5806 5806 5806 5806 5806 5806 5806 5807 5807 5808 5808 5809 5810 5810 5810 5811 5811 5812 5812 5812 5811 5811 5811 5811 5811 5812 5812 5812 5812 5813 5813
5797 5798 5798 5798 5799 5799 5799 5799 5799 5800 5800 5800 5800 5800 5800 5800 5800 5800 5800 5800 5801 5801 5802 5803 5804 5804 5804 5805 5805 5806 5806 5806 5806 5805 5805 5805 5805 5806 5806 5806 5806 5806 5807
5791 5791 5792 5792 5792 5793 5793 5793 5793 5793 5794 5793 5793 5793 5793 5794 5794 5794 5794 5794 5794 5795 5796 5797 5797 5798 5798 5799 5799 5799 5799 5799 5799 5799 5799 5799 5799 5800 5800 5800 5800 5800 5801
5785 5785 5786 5786 5786 5787 5787 5787 5787 5787 5787 5787 5787 5787 5787 5787 5787 5787 5787 5788 5788 5788 5789 5790 5791 5791 5792 5792 5793 5793 5793 5793 5793 5793 5793 5793 5793 5793 5793 5793 5793 5794 5794
5778 5779 5779 5780 5780 5780 5780 5780 5780 5780 5780 5780 5780 5780 5780 5780 5780 5780 5780 5781 5781 5781 5782 5783 5784 5785 5785 5785 5786 5786 5786 5786 5786 5786 5787 5787 5786 5787 5786 5786 5787 5787 5787
5771 5772 5773 5773 5773 5774 5774 5773 5773 5774 5774 5774 5774 5774 5773 5773 5773 5773 5773 5773 5773 5774 5775 5776 5777 5777 5778 5778 5778 5779 5779 5779 5780 5780 5780 5780 5780 5780 5780 5780 5780 5780 5781
5764 5765 5766 5766 5767 5767 5767 5767 5767 5767 5767 5767 5767 5766 5766 5766 5765 5765 5765 5765 5766 5766 5767 5768 5769 5769 5770 5770 5771 5771 5771 5772 5772 5772 5772 5773 5773 5773 5773 5773 5773 5773 5773
5758 5758 5759 5760 5760 5760 5760 5760 5760 5760 5760 5760 5759 5759 5759 5758 5758 5757 5757 5758 5758 5759 5759 5760 5761 5762 5762 5763 5763 5763 5763 5764 5764 5764 5764 5765 5765 5765 5766 5765 5765 5766 5766